Regional Weather Roundup
Issued by NWS Green Bay, WI

Home | Current Version | Previous Version | Text Only | Print | Product List | Glossary On
Versions: 1 2 3 4 5 6 7 8 9 10 11 12 13 14 15 16 17 18 19 20 21 22 23 24 25 26 27 28 29 30 31 32 33 34 35 36 37 38 39 40 41 42 43 44 45 46 47 48 49 50
000
ASUS43 KGRB 231459
RWRGRB

NORTH-CENTRAL AND NORTHEAST WISCONSIN REGIONAL WEATHER ROUNDUP
NATIONAL WEATHER SERVICE GREEN BAY WI
1000 AM CDT WED JUL 23 2014

WIZ005-009-010>012-018-019-231600-
NORTH CENTRAL WISCONSIN

CITY           SKY/WX    TMP DP  RH WIND       PRES   REMARKS
IRONWOOD       NOT AVBL
MANITOWISH WTR NOT AVBL
ARBOR VITAE    NOT AVBL
EAGLE RIVER    NOT AVBL
LAND O LAKES   NOT AVBL
RHINELANDER    PTSUNNY   63  52  67 E3        30.26F
PHILLIPS       SUNNY     66  56  72 CALM      30.25S
ANTIGO         NOT AVBL
TOMAHAWK       NOT AVBL
MERRILL        NOT AVBL
$$

WIZ013-073-231600-
NORTHEAST WISCONSIN

CITY           SKY/WX    TMP DP  RH WIND       PRES   REMARKS
IRON MOUNTAIN  SUNNY     64  48  56 N13       30.22S
MARINETTE      SUNNY     64  48  55 N13G20    30.19F
$$

WIZ017-030-035>037-045-231600-
CENTRAL WISCONSIN

CITY           SKY/WX    TMP DP  RH WIND       PRES   REMARKS
MEDFORD        NOT AVBL
WAUSAU         SUNNY     68  54  60 NE8       30.22F
MOSINEE        SUNNY     66  55  68 CALM      30.25S
MARSHFIELD       N/A    N/A N/A N/A MISG      30.23F
WISC RAPIDS    SUNNY     71  54  54 N7        30.24F
STEVENS POINT  NOT AVBL
WAUPACA        SUNNY     71  50  47 N7        30.22F
SHAWANO        SUNNY     69  51  51 NE10      30.22S
CLINTONVILLE   SUNNY     68  50  52 N8        30.22S
$$

WIZ038-039-048-051-231600-
FOX VALLEY

CITY           SKY/WX    TMP DP  RH WIND       PRES   REMARKS
NWS GREEN BAY  SUNNY     70  51  51 N12       30.20S
APPLETON       MOSUNNY   66  52  59 N10       30.22S
OSHKOSH        SUNNY     69  53  56 N12       30.20F
FOND DU LAC    SUNNY     70  54  56 N12       30.21S
$$

WIZ022-050-052-231600-
EAST CENTRAL WISCONSIN

CITY           SKY/WX    TMP DP  RH WIND       PRES   REMARKS
STURGEON BAY   MOSUNNY   63  52  67 N15       30.20S
MANITOWOC      NOT AVBL
SHEBOYGAN      SUNNY     69  53  56 N10       30.18S
$$

LMZ563-521-522-541>543-231600-
LAKESHORE

STATION/POSITION TIME  TEMP    WIND        PRES    VSBY  WAVE
                       AIR SEA DIR/SP/G                  HT/PER
                 (UTC) (F)     (DEG/KT/KT) (MB)    (MI)  (FT/S)
SHEBOYGAN LKSHOR 1400   59      10/ 13/ 15 1022.2R
KEWAUNEE LKSHORE 1400   65     350/  9/ 14 1022.6S
NORTHPORT PIER   1400   59     350/ 15/ 19 1022.4R
N MID LAKE BUOY  1400   54 54  340/ 12/ 12 1021.4R         2/ 4
CHAMBERS ISLAND  1400   62     350/  9/ 12 1022.7S
MENOMINEE LKSHOR 1400   62     350/ 12/ 15 1023.1F
$$


USA.gov is the U.S. government's official web portal to all federal, state and local government web resources and services.